Regional Weather Roundup
Issued by NWS Goodland, KS

Home | Current Version | Previous Version | Text Only | Print | Product List | Glossary On
Versions: 1 2 3 4 5 6 7 8 9 10 11 12 13 14 15 16 17 18 19 20 21 22 23 24 25 26 27 28 29 30 31 32 33 34 35 36 37 38 39 40 41 42 43 44 45 46 47 48 49 50
000
ASUS43 KGLD 260008
RWRGLD

GOODLAND FORECAST AREA HOURLY WEATHER ROUNDUP
NATIONAL WEATHER SERVICE GOODLAND KS
600 PM MDT FRI MAY 25 2018

...OFFICIAL OBSERVATIONS...

CITY           SKY/WX    TMP DP  RH WIND       PRES   REMARKS
GOODLAND KS    SUNNY     89  44  20 VRB3      29.91S
HILL CITY KS   MOSUNNY   83  66  56 W5        29.84F
IMPERIAL NEB   SUNNY     93  36  13 N6        29.88S
MCCOOK NEB     SUNNY     90  58  33 S5        29.83F
AKRON CO       SUNNY     86  46  24 CALM      29.96F
BURLINGTON CO  SUNNY     87  46  24 SE12G18   29.95F
LIMON CO       SUNNY     85  31  14 S12G20    30.00F
$$

...UNOFFICIAL OBSERVATIONS...

CITY           SKY/WX    TMP DP  RH WIND       PRES   REMARKS
COLBY KS       SUNNY     90  52  27 S9        29.90F
NORTON KS      SUNNY     90  54  29 S8        29.83
SHARON SPRINGS   N/A     86  53  32 MISG        N/A
KIT CARSON CO    N/A     90  47  22 MISG        N/A
YUMA CO        FAIR      86  41  20 CALM      29.93F
$$




USA.gov is the U.S. government's official web portal to all federal, state and local government web resources and services.